Temp
12 12 12 11 10 11 14 14 14 14 13 13 13 13 14 14 14 14 13 13 13 13 12 12 12 12 11 11 10 10 9 9 9 8 8 8 8 8 8 8 8 8 7 7 8 8 8 8 9
11 11 11 9 12 14 15 14 13 13 13 13 13 13 13 13 13 13 13 13 13 13 12 12 12 11 11 11 10 10 9 9 9 8 8 8 8 8 8 8 8 8 7 7 7 8 8 7 8
11 11 9 11 13 15 16 14 14 13 13 13 13 13 13 13 13 13 13 13 13 12 12 12 11 11 11 10 10 9 9 9 9 9 8 8 8 8 8 8 8 7 7 6 7 7 7 7 7
10 10 10 11 14 14 14 14 13 13 13 13 13 13 13 13 13 13 12 12 12 12 12 12 11 11 10 10 10 9 9 9 9 9 8 8 8 8 8 7 7 7 7 7 6 6 6 7 6
10 9 11 12 13 14 13 13 13 13 13 13 13 13 13 13 13 13 12 12 12 12 12 12 11 11 10 10 10 9 9 9 9 8 8 8 8 8 7 7 6 6 6 6 6 6 6 6 6
9 9 11 13 14 13 13 13 13 13 13 13 12 13 13 12 13 13 13 12 12 12 12 12 11 11 10 10 10 9 9 9 9 8 8 8 8 7 7 7 6 6 6 6 6 6 6 5 5
9 10 12 13 14 13 13 13 13 13 13 13 12 12 13 12 12 12 12 12 12 12 12 12 11 11 10 10 10 10 9 9 9 8 8 8 7 7 7 6 6 6 6 6 6 6 5 5 5
9 10 11 13 13 13 13 12 12 12 13 12 12 12 12 12 12 12 12 12 12 12 12 12 11 11 10 10 10 10 9 9 9 8 8 7 7 7 7 7 6 6 6 6 6 6 6 5 5
10 9 11 13 13 13 12 12 11 12 12 11 11 12 11 12 12 12 12 12 12 12 12 12 11 11 10 10 10 10 9 9 8 8 7 7 7 7 7 7 6 6 5 5 5 5 5 5 5
9 10 11 12 13 12 13 12 12 12 11 12 12 12 11 12 12 12 12 12 12 12 12 12 11 11 10 10 10 9 9 9 8 8 7 7 7 7 6 6 6 6 6 5 5 5 5 5 5
9 11 12 11 12 11 11 11 12 11 11 13 12 11 11 11 13 12 12 12 12 12 12 12 11 11 11 10 10 9 9 8 8 7 7 7 7 6 6 5 5 5 5 5 5 5 5 4 4
9 10 10 11 11 11 10 11 11 11 11 13 12 11 12 12 12 12 11 11 12 12 12 12 11 11 11 10 10 9 9 8 8 7 7 7 6 6 6 5 5 4 4 4 5 5 5 4 4
9 9 9 10 9 10 10 10 12 11 11 12 12 12 12 12 12 13 12 11 12 12 12 12 12 11 10 10 10 9 9 9 8 7 7 6 6 6 6 5 4 4 4 4 4 3 3 3 3
9 9 9 9 9 9 9 10 10 10 12 12 12 12 12 12 12 12 11 11 11 12 12 12 12 11 11 10 10 9 9 8 8 7 7 6 6 6 5 4 4 3 3 3 3 3 2 3 3
8 8 9 9 9 9 10 10 10 10 12 11 11 12 12 12 12 11 11 10 11 12 12 12 12 12 11 10 9 9 9 8 8 7 7 6 6 6 5 4 4 3 3 3 3 3 2 3 3
8 8 9 10 9 9 9 10 11 11 11 11 11 12 12 12 12 11 11 11 11 12 12 12 12 12 12 11 10 9 8 8 7 7 6 6 6 5 5 4 4 4 3 3 3 2 3 3 3
8 9 10 10 10 10 9 10 11 11 11 10 11 11 11 12 12 11 12 12 12 12 12 12 12 12 12 10 10 9 8 8 7 7 6 6 6 5 5 4 4 3 3 3 2 2 3 2 2
9 9 9 10 11 9 9 10 11 11 10 10 10 10 11 11 12 12 12 12 12 12 12 12 12 12 12 11 10 9 8 7 7 6 6 6 5 5 4 4 3 3 2 2 2 2 2 2 2
9 10 10 10 10 10 10 10 11 11 10 10 10 10 11 12 12 12 12 12 13 12 12 12 12 12 12 11 9 8 8 7 6 6 6 5 5 4 4 3 3 2 2 2 2 2 2 2 2
7 8 9 10 10 10 9 10 10 11 10 10 10 10 12 12 12 12 12 13 13 13 13 12 12 12 11 10 9 8 7 7 6 6 6 5 4 4 3 3 3 2 2 2 2 2 2 2 2
7 7 8 9 10 9 9 9 9 10 10 10 10 11 11 11 12 12 12 13 13 13 12 12 12 11 10 9 8 8 7 6 6 6 5 4 4 4 3 3 3 2 2 2 2 2 2 2 2
8 7 7 8 8 9 9 11 10 10 10 10 10 10 11 11 12 12 12 13 12 12 12 12 11 10 10 9 8 7 6 6 6 5 4 4 3 3 3 3 3 2 2 2 2 2 2 2 2
7 8 7 7 7 8 8 9 10 10 10 10 10 10 11 11 12 12 12 12 12 12 12 11 10 10 9 8 7 6 6 6 5 4 4 3 3 2 2 2 2 2 2 2 2 2 2 2 2
7 7 7 7 7 9 8 8 9 10 10 11 11 11 11 12 12 12 12 12 12 12 11 10 10 9 8 7 7 6 6 5 4 4 3 3 3 3 2 2 2 2 2 2 2 2 2 2 2
6 7 9 8 9 9 9 9 9 9 10 10 11 11 11 12 12 12 12 12 12 11 10 10 9 8 7 7 6 6 5 5 4 4 3 3 3 2 3 2 2 2 2 2 2 2 2 2 2
6 7 10 9 10 11 9 10 10 9 10 11 10 10 11 12 12 12 12 12 11 11 10 9 8 7 7 7 6 6 5 4 4 3 3 3 2 3 3 2 2 2 2 2 2 2 2 2 2
7 7 9 11 11 11 12 11 9 9 12 10 11 10 11 12 12 12 12 11 11 10 9 8 8 7 7 7 6 6 5 4 4 4 3 3 2 3 3 3 2 3 3 3 2 2 2 1 1
7 8 8 9 10 10 12 12 11 12 12 11 11 11 12 12 12 12 11 11 10 9 9 8 8 7 7 7 6 6 5 4 4 4 3 3 3 3 3 3 3 2 3 3 2 2 2 2 1
7 7 8 9 10 11 12 12 11 10 12 12 12 12 12 13 12 12 11 11 10 9 8 8 8 7 7 7 6 5 4 4 4 3 3 3 3 3 3 3 3 3 3 3 3 3 2 2 2
8 8 8 9 9 10 12 12 11 10 10 11 12 12 13 13 12 11 11 10 10 9 8 8 8 7 7 6 6 5 4 4 4 3 3 3 3 3 3 3 3 3 3 3 3 3 3 2 2
Height
3180 3181 3183 3186 3193 3187 3185 3185 3184 3186 3187 3185 3184 3184 3185 3184 3185 3186 3181 3179 3177 3176 3176 3174 3173 3171 3169 3167 3166 3164 3163 3161 3158 3157 3156 3154 3152 3150 3148 3147 3146 3144 3144 3143 3144 3144 3145 3147 3147
3180 3182 3183 3185 3189 3184 3181 3183 3183 3184 3184 3182 3182 3181 3181 3182 3181 3180 3178 3177 3176 3174 3173 3172 3170 3170 3167 3166 3165 3164 3162 3159 3158 3156 3154 3152 3150 3147 3145 3143 3141 3140 3139 3140 3140 3140 3139 3141 3144
3180 3181 3185 3186 3184 3181 3178 3182 3182 3182 3182 3181 3181 3179 3179 3180 3178 3177 3176 3175 3174 3173 3171 3170 3168 3167 3165 3164 3163 3162 3160 3158 3156 3154 3152 3149 3146 3144 3141 3139 3138 3137 3135 3135 3135 3135 3136 3136 3137
3179 3180 3182 3181 3180 3180 3181 3181 3180 3180 3181 3179 3178 3179 3177 3177 3175 3175 3173 3172 3171 3170 3169 3168 3166 3164 3162 3161 3161 3160 3159 3157 3155 3152 3150 3147 3144 3140 3137 3135 3133 3131 3131 3132 3131 3131 3131 3132 3133
3177 3180 3182 3179 3178 3179 3179 3179 3178 3178 3179 3179 3176 3178 3176 3174 3172 3171 3170 3170 3168 3167 3167 3165 3164 3162 3160 3159 3157 3157 3155 3154 3152 3150 3147 3145 3141 3137 3133 3130 3128 3127 3126 3126 3126 3127 3128 3128 3128
3176 3178 3178 3175 3174 3176 3177 3177 3176 3176 3176 3175 3174 3175 3175 3171 3170 3168 3167 3166 3165 3164 3164 3163 3162 3160 3158 3156 3155 3154 3152 3150 3148 3145 3143 3140 3137 3134 3130 3128 3126 3123 3122 3122 3121 3121 3122 3123 3123
3172 3175 3174 3173 3173 3174 3174 3174 3174 3174 3173 3174 3172 3172 3173 3171 3168 3167 3165 3163 3162 3161 3161 3160 3160 3158 3156 3154 3153 3151 3149 3146 3145 3142 3139 3136 3133 3130 3127 3124 3123 3121 3119 3118 3116 3116 3117 3117 3118
3170 3172 3171 3171 3171 3172 3171 3171 3171 3170 3172 3169 3169 3170 3170 3168 3165 3164 3162 3161 3159 3157 3157 3156 3157 3155 3153 3151 3150 3147 3145 3143 3142 3139 3137 3134 3130 3127 3123 3121 3119 3117 3115 3114 3113 3112 3112 3112 3113
3165 3168 3166 3167 3168 3169 3168 3169 3165 3164 3164 3166 3165 3164 3164 3162 3161 3160 3159 3158 3156 3154 3153 3152 3153 3152 3150 3147 3146 3143 3142 3140 3138 3136 3133 3129 3126 3123 3119 3117 3115 3113 3111 3110 3110 3109 3108 3108 3108
3158 3159 3160 3164 3165 3165 3165 3164 3164 3160 3160 3161 3162 3161 3159 3157 3157 3156 3155 3154 3152 3151 3148 3147 3147 3147 3146 3143 3141 3140 3138 3136 3134 3132 3129 3126 3123 3119 3116 3113 3111 3109 3107 3106 3105 3105 3104 3104 3104
3151 3148 3157 3158 3160 3160 3159 3157 3160 3156 3155 3157 3158 3156 3155 3152 3151 3150 3150 3149 3147 3145 3142 3142 3141 3141 3140 3139 3137 3135 3134 3132 3130 3129 3126 3122 3119 3115 3111 3109 3107 3105 3104 3102 3100 3100 3099 3098 3098
3144 3145 3149 3153 3155 3154 3151 3152 3149 3149 3149 3151 3150 3148 3147 3147 3145 3143 3142 3141 3140 3138 3137 3136 3135 3135 3135 3133 3133 3131 3130 3128 3126 3124 3122 3118 3114 3110 3107 3105 3102 3100 3098 3097 3096 3095 3093 3093 3093
3137 3141 3144 3145 3145 3146 3146 3143 3141 3140 3142 3144 3143 3142 3140 3137 3135 3133 3131 3130 3132 3132 3131 3130 3129 3129 3129 3128 3127 3127 3125 3123 3121 3119 3116 3113 3109 3105 3102 3099 3097 3094 3092 3091 3089 3087 3088 3088 3088
3136 3136 3136 3137 3138 3140 3138 3136 3138 3136 3137 3137 3137 3136 3133 3130 3127 3122 3121 3121 3124 3126 3124 3123 3123 3123 3122 3123 3122 3122 3120 3118 3117 3114 3111 3107 3104 3100 3096 3093 3091 3088 3087 3086 3084 3082 3083 3084 3085
3126 3127 3128 3127 3131 3132 3135 3125 3126 3131 3132 3130 3129 3128 3126 3122 3118 3114 3113 3114 3118 3119 3118 3118 3118 3117 3117 3117 3116 3116 3115 3113 3112 3109 3105 3102 3098 3095 3091 3088 3085 3083 3082 3081 3079 3078 3080 3080 3081
3117 3120 3116 3121 3124 3125 3129 3111 3124 3127 3127 3125 3123 3122 3118 3115 3111 3109 3109 3109 3112 3112 3113 3113 3112 3111 3110 3110 3111 3110 3109 3108 3106 3103 3100 3096 3093 3090 3086 3083 3079 3078 3076 3075 3074 3075 3076 3077 3078
3106 3100 3103 3115 3120 3120 3120 3105 3118 3120 3119 3116 3114 3114 3112 3107 3104 3105 3102 3104 3105 3106 3106 3105 3105 3104 3104 3103 3104 3103 3103 3102 3100 3097 3094 3091 3087 3084 3080 3077 3074 3072 3071 3070 3071 3071 3073 3073 3074
3091 3097 3102 3104 3113 3112 3111 3101 3111 3112 3111 3109 3108 3107 3104 3100 3098 3098 3097 3098 3099 3100 3100 3100 3100 3099 3098 3098 3097 3098 3097 3096 3094 3091 3088 3085 3081 3078 3075 3072 3069 3068 3067 3066 3067 3068 3069 3069 3069
3093 3094 3093 3099 3106 3106 3102 3098 3102 3106 3104 3103 3102 3100 3097 3094 3094 3092 3092 3094 3094 3095 3095 3094 3094 3093 3091 3091 3092 3092 3091 3090 3088 3085 3082 3079 3076 3073 3069 3067 3065 3064 3063 3063 3064 3064 3065 3065 3066
3086 3086 3086 3094 3098 3097 3097 3092 3095 3097 3096 3094 3093 3092 3090 3088 3089 3087 3087 3089 3090 3090 3089 3088 3087 3086 3085 3086 3087 3087 3087 3085 3083 3079 3076 3073 3070 3067 3064 3062 3060 3059 3059 3059 3060 3061 3061 3062 3064
3071 3076 3086 3087 3093 3091 3091 3084 3083 3087 3087 3086 3083 3083 3082 3083 3084 3083 3083 3084 3084 3084 3083 3082 3080 3079 3080 3081 3082 3082 3082 3080 3077 3073 3070 3068 3065 3062 3060 3058 3056 3055 3056 3057 3057 3057 3058 3060 3063
3061 3075 3082 3084 3088 3079 3088 3071 3072 3076 3075 3075 3074 3076 3076 3077 3078 3078 3079 3079 3079 3078 3078 3077 3076 3076 3077 3078 3078 3078 3077 3075 3072 3069 3065 3062 3060 3057 3056 3055 3054 3053 3053 3053 3054 3055 3057 3060 3062
3049 3071 3074 3077 3077 3077 3074 3073 3058 3069 3066 3064 3068 3069 3071 3072 3073 3073 3074 3073 3073 3074 3074 3073 3073 3074 3074 3074 3074 3074 3072 3070 3067 3064 3061 3059 3056 3054 3053 3052 3051 3051 3051 3051 3052 3054 3056 3059 3062
3060 3066 3068 3070 3071 3062 3065 3068 3058 3057 3056 3057 3061 3062 3064 3066 3068 3069 3069 3069 3069 3070 3070 3070 3070 3070 3070 3071 3071 3069 3068 3065 3063 3061 3058 3055 3053 3052 3051 3050 3050 3050 3050 3050 3051 3054 3057 3060 3061
3049 3056 3057 3060 3057 3047 3058 3056 3048 3048 3048 3049 3055 3056 3056 3061 3063 3064 3065 3066 3066 3067 3068 3067 3067 3067 3067 3068 3066 3065 3064 3062 3060 3058 3054 3052 3051 3050 3050 3049 3049 3049 3050 3051 3053 3056 3058 3059 3061
3028 3035 3033 3039 3040 3041 3047 3039 3036 3038 3040 3042 3045 3051 3052 3056 3059 3060 3062 3063 3064 3064 3064 3065 3065 3065 3065 3064 3063 3062 3060 3059 3058 3055 3053 3051 3049 3049 3049 3048 3048 3049 3051 3053 3056 3056 3057 3058 3060
3022 3024 3032 3033 3034 3034 3032 3036 3033 3033 3032 3036 3038 3043 3047 3052 3055 3057 3058 3060 3060 3061 3062 3062 3062 3062 3062 3061 3060 3060 3058 3057 3056 3054 3052 3049 3048 3048 3048 3048 3049 3051 3053 3055 3057 3058 3059 3060 3061
3013 3024 3029 3028 3027 3029 3029 3030 3030 3029 3030 3031 3034 3039 3044 3049 3052 3053 3055 3057 3058 3059 3060 3060 3059 3059 3059 3059 3058 3058 3056 3055 3054 3052 3051 3049 3049 3049 3049 3050 3051 3052 3054 3056 3057 3058 3059 3062 3063
3004 3009 3017 3022 3023 3024 3025 3026 3026 3026 3030 3032 3036 3038 3041 3045 3048 3050 3053 3054 3055 3057 3057 3057 3057 3057 3057 3057 3057 3055 3055 3054 3052 3051 3050 3049 3049 3050 3050 3051 3052 3053 3054 3056 3058 3059 3060 3062 3065
3001 3004 3011 3012 3021 3023 3021 3023 3023 3024 3025 3030 3034 3034 3037 3042 3045 3049 3051 3052 3054 3055 3055 3055 3055 3056 3055 3055 3055 3054 3054 3053 3052 3050 3050 3050 3050 3051 3051 3053 3054 3055 3056 3057 3058 3059 3060 3063 3065
Wind_Speed
10 10 10 9 4 6 12 8 7 5 3 5 4 3 6 9 8 11 14 13 16 15 17 14 16 20 19 13 11 12 13 13 13 15 16 17 17 16 15 18 20 21 22 20 21 22 21 22 24
11 10 9 6 5 12 12 10 8 7 7 6 5 7 8 9 10 10 10 14 16 16 17 13 15 18 15 10 8 8 11 12 13 15 17 19 20 18 17 17 19 21 22 23 21 23 25 24 24
11 11 7 5 10 12 5 10 7 4 5 5 5 10 8 7 13 10 11 14 16 15 16 16 14 18 12 8 6 6 9 12 14 16 18 21 23 22 18 15 16 19 21 22 22 23 25 26 25
12 10 11 10 11 8 8 9 8 6 7 11 10 8 11 9 5 8 13 14 15 16 16 19 15 17 12 10 9 9 9 12 13 16 19 22 25 25 20 18 17 17 18 18 21 23 23 26 26
13 9 13 13 13 11 11 12 11 11 10 7 9 8 8 7 8 10 9 12 15 18 17 20 15 14 14 12 13 13 12 13 15 17 19 22 25 27 23 19 18 18 18 18 19 20 22 24 27
11 11 15 17 15 11 11 10 11 12 14 10 6 8 7 9 13 12 11 11 15 19 19 20 13 9 11 12 14 15 17 18 20 21 23 26 27 28 25 19 16 17 17 17 18 19 21 20 24
17 15 17 17 16 15 13 11 8 9 11 10 10 10 10 8 13 13 13 13 14 18 19 22 14 11 10 12 14 15 15 18 22 23 25 27 29 30 27 21 17 16 17 16 17 18 19 20 21
18 17 20 20 19 17 11 7 6 6 10 16 17 14 12 15 20 21 18 17 16 16 18 21 16 14 11 12 13 14 14 17 20 23 25 27 29 31 28 22 21 19 18 18 18 19 20 21 21
22 21 24 24 21 18 10 9 14 17 17 15 17 28 21 26 24 23 23 19 17 18 20 20 18 17 17 16 15 15 15 18 19 22 26 28 30 31 28 23 22 22 21 20 19 20 22 23 24
26 27 30 28 24 23 21 21 20 22 20 20 19 22 23 27 28 28 27 26 22 19 20 24 23 22 20 21 18 17 17 18 20 23 28 30 30 30 27 24 22 22 22 19 18 20 22 24 25
28 41 37 32 28 26 30 29 25 27 27 29 23 22 24 28 31 34 31 31 25 25 20 25 23 24 28 26 22 20 21 20 23 24 28 31 31 30 27 25 23 21 21 20 20 22 24 26 26
40 41 36 35 36 33 29 30 32 33 30 31 28 28 29 32 35 36 32 32 27 26 21 21 23 25 26 30 26 23 23 23 26 27 29 31 31 28 27 25 23 22 22 23 24 25 25 24 26
44 38 38 36 36 36 34 35 42 36 33 33 30 32 35 39 41 43 37 34 29 24 21 22 26 26 30 32 30 25 25 26 28 28 31 31 30 28 28 27 25 24 24 25 26 24 21 22 24
39 39 41 38 38 35 36 40 37 35 34 35 32 32 39 44 44 38 34 32 30 24 23 26 24 28 32 34 32 29 28 28 29 30 32 31 29 29 29 28 26 25 25 21 22 23 21 18 18
39 40 40 34 34 38 37 45 41 34 35 35 34 36 43 43 39 33 25 22 28 27 27 25 24 27 31 36 34 32 30 28 30 31 32 30 29 29 28 27 27 22 20 21 21 18 19 16 15
33 39 43 39 35 34 29 48 39 30 29 30 32 39 42 41 34 26 20 22 27 29 29 26 31 33 30 31 34 35 33 29 30 32 32 29 29 28 27 28 24 21 19 20 17 16 18 16 17
42 48 48 38 33 31 34 51 37 29 28 27 37 41 44 41 32 24 22 23 29 28 28 26 30 30 29 25 32 35 33 30 30 32 31 29 28 28 27 26 23 19 19 17 16 16 17 17 18
46 39 43 43 34 27 36 44 36 32 33 31 36 39 39 33 27 22 22 24 24 22 19 23 27 30 29 28 32 33 32 30 30 32 29 29 27 29 26 24 20 19 18 16 16 16 16 16 16
42 45 44 36 34 35 39 42 37 34 34 36 36 37 39 31 18 20 20 20 18 21 23 24 27 28 28 27 30 30 29 29 31 30 29 27 26 27 24 20 19 18 18 14 16 14 15 13 15
42 42 46 39 34 36 37 42 40 39 42 39 40 38 32 21 20 19 19 20 19 23 28 29 31 28 24 25 26 26 25 28 29 28 28 25 25 23 20 20 19 19 18 13 12 13 12 13 15
47 45 39 40 32 32 36 44 46 41 39 36 34 33 29 23 17 11 15 18 20 22 25 28 28 22 17 19 21 21 24 27 25 26 25 24 23 20 18 17 15 10 9 11 11 10 11 12 14
48 35 34 37 32 41 35 36 45 34 36 33 33 28 24 22 20 13 14 20 22 21 19 20 18 12 13 16 17 19 23 22 23 22 23 23 21 18 15 10 12 8 9 9 9 10 13 12 14
53 35 33 32 35 38 40 36 43 29 34 33 27 23 21 22 18 17 19 17 13 13 15 16 11 11 13 13 16 19 20 20 19 21 22 20 19 15 8 12 8 7 8 8 8 12 14 16 15
34 25 25 26 30 29 37 36 43 42 41 33 23 19 20 25 17 17 17 11 10 11 14 11 10 11 10 13 16 18 17 15 17 19 20 17 11 8 10 7 6 6 6 6 10 12 15 15 15
38 33 15 17 19 18 28 29 35 37 24 28 19 14 23 22 17 14 13 12 9 9 11 11 11 10 13 14 15 14 12 14 15 15 13 7 6 7 5 4 4 4 4 9 14 13 11 11 11
48 44 24 19 15 16 27 14 25 18 27 27 23 15 21 21 16 13 14 12 9 7 8 10 9 12 12 12 11 10 12 13 11 11 10 8 8 3 3 3 3 4 11 15 12 7 7 7 11
42 46 38 15 15 9 20 23 26 23 13 19 19 22 24 24 19 16 15 11 8 7 8 9 10 9 10 10 8 10 11 10 9 10 8 9 1 3 4 4 6 8 13 12 9 6 6 11 10
40 38 34 30 18 16 14 14 15 5 11 15 19 23 22 26 17 16 16 11 8 6 9 10 8 8 8 7 7 10 8 8 9 7 5 4 1 4 5 7 10 9 10 9 7 7 5 9 9
37 43 34 31 20 14 7 11 12 13 10 17 17 18 23 22 19 17 13 10 8 6 10 7 6 8 7 7 7 8 7 5 6 3 2 1 4 5 7 9 10 9 11 10 9 7 7 11 11
40 33 41 26 26 17 10 7 4 7 9 19 13 21 22 19 17 15 9 7 6 7 8 6 6 7 7 6 6 5 5 4 3 1 2 3 4 7 9 9 10 8 8 8 9 10 10 12 11
Wind_Direction
189 179 176 186 187 223 222 204 193 188 219 241 256 250 266 274 295 311 305 316 317 319 323 329 353 355 357 354 358 2 358 352 354 358 357 353 343 322 300 287 279 273 270 265 263 260 250 243 246
190 185 179 191 226 228 208 207 188 214 247 255 244 259 275 284 282 306 319 313 311 314 321 316 341 344 350 350 358 356 359 359 355 354 352 354 347 334 311 292 281 273 268 263 254 255 259 251 240
196 194 175 216 234 245 239 199 200 241 266 239 267 271 264 294 301 294 310 323 310 310 322 321 333 337 337 337 331 333 354 357 354 352 350 351 348 339 325 305 286 273 266 262 257 249 250 254 251
205 207 225 220 229 239 207 208 235 254 262 256 255 277 280 299 325 315 318 325 316 303 320 321 328 334 327 324 321 319 326 338 345 348 346 346 346 341 329 314 301 284 274 262 255 253 248 250 249
215 214 229 242 243 237 226 227 249 253 255 258 253 251 258 261 263 272 307 316 317 304 313 319 322 333 326 327 322 319 319 326 335 339 342 342 342 341 331 320 307 296 285 276 266 258 252 248 248
222 214 235 240 246 239 239 242 253 257 243 249 247 244 263 257 256 259 272 296 304 301 297 310 309 337 335 331 330 325 322 325 330 335 338 337 337 337 332 318 308 295 288 279 274 270 261 251 246
217 238 242 253 253 253 259 244 256 255 233 246 246 260 261 279 260 255 262 266 279 289 287 294 290 305 319 329 329 323 318 321 324 328 331 332 331 332 329 314 302 292 286 280 273 272 267 261 254
229 235 245 248 254 263 254 230 245 226 248 246 257 269 260 274 267 271 274 277 278 279 274 282 278 286 291 301 308 312 316 319 321 324 326 326 326 327 325 311 299 293 284 278 275 274 272 267 261
244 240 244 243 250 257 252 261 272 263 264 271 262 263 272 274 266 269 275 271 277 276 269 273 269 275 274 285 292 300 312 317 320 324 324 324 324 323 323 311 299 294 286 278 272 271 272 269 267
233 245 247 247 252 253 259 277 281 277 279 272 270 282 283 274 273 276 278 277 276 269 269 268 266 269 270 276 279 287 300 306 313 318 323 322 321 319 315 304 296 290 286 280 273 271 269 264 262
241 251 257 251 253 265 265 273 275 279 275 280 281 280 281 283 289 291 283 274 267 267 267 261 255 263 271 272 276 284 291 299 305 311 319 317 316 315 313 302 294 288 283 281 280 280 271 263 260
247 255 249 248 254 265 264 274 277 276 273 273 282 290 291 294 288 282 277 268 260 257 257 261 257 256 265 268 277 281 287 296 302 307 312 313 313 312 308 302 295 287 284 288 286 281 268 257 253
248 252 249 256 257 258 265 268 281 273 270 275 283 287 305 303 305 300 271 262 252 254 257 260 262 257 261 266 273 280 287 293 297 304 309 311 308 309 307 303 295 289 290 292 291 277 258 255 250
251 254 256 253 254 261 267 267 272 268 275 273 282 294 302 306 302 291 273 262 249 250 257 263 262 262 261 265 272 279 285 290 295 302 307 307 305 308 307 303 297 291 287 282 284 275 261 247 238
245 250 250 250 252 255 265 264 262 271 275 277 284 298 307 304 297 281 267 255 248 252 256 265 263 265 265 264 267 273 282 286 294 300 304 303 304 307 306 301 298 289 286 287 279 266 254 242 236
241 245 247 247 250 252 249 262 263 267 271 272 282 296 306 299 294 269 261 262 252 253 260 262 258 271 268 269 272 272 279 285 291 299 301 301 303 305 304 301 291 285 284 289 267 256 247 242 246
236 238 240 248 251 254 242 260 265 264 261 273 289 295 302 293 289 263 258 258 256 258 266 262 265 275 266 265 275 270 278 284 291 297 298 300 304 306 304 295 287 280 282 280 255 250 239 247 255
226 236 246 251 249 245 246 261 261 259 267 280 289 294 298 296 285 253 248 253 255 258 257 260 268 273 269 260 270 268 278 284 291 295 296 302 303 304 299 294 283 278 278 266 251 245 245 259 251
240 243 247 247 244 247 252 260 261 265 269 275 282 290 295 294 257 251 245 252 251 253 265 265 268 275 276 257 264 273 279 285 291 293 299 303 302 303 296 289 281 276 275 258 250 250 259 252 233
235 240 245 249 247 248 258 263 264 262 271 277 283 281 288 272 260 257 252 247 250 258 273 271 271 277 271 259 267 275 281 285 289 296 303 301 303 302 295 292 285 278 265 236 247 253 248 231 214
233 234 240 246 251 256 260 265 265 268 270 275 265 273 285 264 247 240 244 252 259 270 276 278 279 269 261 265 270 276 281 285 294 301 299 302 302 298 292 289 290 266 244 247 254 242 223 207 202
232 231 238 249 250 251 251 268 266 267 263 265 266 277 269 251 237 242 261 264 274 273 278 282 266 247 261 266 271 277 284 293 299 298 300 302 303 301 292 286 272 257 254 254 246 220 197 191 190
234 232 238 247 251 258 252 255 262 262 266 269 263 266 256 239 245 247 268 267 258 273 288 268 251 256 257 265 277 286 292 296 298 299 302 302 302 296 277 283 260 255 258 245 227 199 184 181 186
226 221 229 239 246 246 248 250 260 259 262 269 272 258 231 227 235 251 254 242 262 272 282 257 261 261 269 281 288 291 293 297 300 304 306 303 304 285 286 258 244 248 231 229 190 178 172 182 189
205 198 204 222 226 246 247 251 252 257 265 247 249 244 225 218 223 240 229 235 245 277 274 272 266 272 282 286 290 291 297 298 303 310 320 317 304 291 270 246 227 205 197 170 152 156 182 195 198
198 192 201 215 231 242 231 250 245 253 250 258 246 232 214 214 220 239 231 225 256 270 265 262 269 280 282 285 287 297 297 302 306 315 317 313 305 262 247 203 174 158 153 143 138 146 163 160 155
196 206 208 231 230 267 227 239 266 255 245 246 229 210 204 209 224 229 214 227 249 251 261 266 279 276 280 283 292 299 299 298 310 310 310 325 221 190 172 154 156 148 161 152 165 159 148 152 160
205 198 197 216 234 228 242 240 242 237 251 222 197 191 193 209 219 221 202 226 245 253 265 276 269 276 284 285 297 296 297 290 316 323 315 290 167 152 149 155 153 155 163 178 183 166 167 161 173
193 201 207 208 218 209 228 228 248 242 226 188 182 193 200 211 223 200 201 224 239 250 266 259 262 289 287 281 297 290 285 290 332 329 318 259 162 149 154 151 151 155 161 165 170 178 171 165 165
202 202 198 196 200 235 211 230 306 212 200 197 197 195 204 198 179 183 205 231 223 251 257 247 273 300 279 274 282 275 267 305 344 58 111 118 155 167 163 160 151 152 157 164 175 169 163 161 168